Home   Weather   Västerås   Past weeks

Flag for Sweden Past Weather in Västerås, Sweden — Yesterday and Last 2 Weeks

Now
30 °F

Chilly.


Feels Like: 27 °F
Forecast: 34 / 58 °F
Wind: 3 mph from Southwest

Location: Vasteras / Hasslo

Current Time: May 1, 2017 at 4:59:57 am

Latest Report: May 1, 2017 at 4:20 am


Visibility: N/A

Pressure: 30.27 "Hg

Humidity: 86%

Dew Point: 27 °F

Location of VästeråsLocation

Past Weather in Västerås — Graph

°F

Västerås Temperature Yesterday

Maximum temperature yesterday: 55 °F (at 4:20 pm)
Minimum temperature yesterday: 32 °F (at 3:50 am)
Average temperature yesterday: 44 °F

High & Low Weather Summary for the Past Weeks

 TemperatureHumidityPressure
High55 °F (Apr 21, 12:20 pm)100% (Apr 24, 9:50 pm)30.54 "Hg (Apr 24, 9:50 pm)
Low16 °F (Apr 17, 3:50 am)21% (Apr 22, 4:50 pm)29.24 "Hg (Apr 25, 4:20 am)
Average39 °F62%29.92 "Hg
* Reported Apr 16 3:20 am — May 1 3:50 am, Västerås, Weather by CustomWeather, © 2017

Note: Actual official high and low records may vary slightly from our data, if they occured in-between our weather recording intervals... More about our weather records

Advertising

Västerås Weather History for the Previous 24 Hours

Scroll right to see more
 ConditionsComfort  
Time TempWeatherWind HumidityBarometerVisibility
3:50 am
Mon, May 1
30 °FChilly.2 mph80%30.27 "HgN/A
3:20 am32 °FChilly.6 mph80%30.24 "HgN/A
2:20 am36 °FChilly.5 mph70%30.24 "HgN/A
1:50 am41 °FQuite cool.5 mph61%30.21 "HgN/A
1:20 am41 °FQuite cool.6 mph57%30.21 "HgN/A
12:50 am39 °FChilly.6 mph61%30.21 "HgN/A
12:20 am43 °FQuite cool.3 mph53%30.21 "HgN/A
11:50 pm
Sun, Apr 30
45 °FQuite cool.5 mph49%30.18 "HgN/A
11:20 pm46 °FCool.5 mph46%30.18 "HgN/A
10:50 pm45 °FQuite cool.6 mph53%30.18 "HgN/A
10:20 pm45 °FQuite cool.7 mph53%30.15 "HgN/A
9:50 pm46 °FCool.8 mph46%30.15 "HgN/A
9:20 pm48 °FCool.8 mph43%30.15 "HgN/A
8:50 pm50 °FCool.9 mph40%30.15 "HgN/A
8:20 pm50 °FCool.10 mph37%30.12 "HgN/A
7:50 pm52 °FPassing clouds.8 mph35%30.12 "HgN/A
7:20 pm54 °FCool.7 mph33%30.12 "HgN/A
6:50 pm54 °FScattered clouds.13 mph33%30.09 "HgN/A
6:20 pm54 °FPassing clouds.9 mph33%30.09 "HgN/A
5:50 pm54 °FPassing clouds.9 mph30%30.09 "HgN/A
5:20 pm54 °FPassing clouds.9 mph30%30.09 "HgN/A
4:50 pm54 °FScattered clouds.14 mph30%30.09 "HgN/A
4:20 pm55 °FScattered clouds.9 mph28%30.09 "HgN/A
3:50 pm54 °FPassing clouds.10 mph28%30.09 "HgN/A
3:20 pm52 °FPassing clouds.12 mph32%30.09 "HgN/A
2:50 pm54 °FPassing clouds.10 mph28%30.09 "HgN/A
2:20 pm54 °FPassing clouds.10 mph30%30.09 "HgN/A
1:50 pm50 °FPassing clouds.10 mph32%30.12 "HgN/A
1:20 pm50 °FPassing clouds.10 mph32%30.12 "HgN/A
12:50 pm50 °FPassing clouds.10 mph30%30.12 "HgN/A
12:20 pm48 °FPassing clouds.14 mph32%30.12 "HgN/A
11:50 am46 °FPassing clouds.14 mph34%30.12 "HgN/A
11:20 am46 °FPassing clouds.15 mph34%30.12 "HgN/A
10:50 am46 °FSunny.15 mph34%30.12 "Hg10 mi
10:20 am45 °FPassing clouds.15 mph37%30.12 "HgN/A
9:50 am45 °FPassing clouds.13 mph39%30.12 "HgN/A
9:20 am45 °FPassing clouds.14 mph39%30.12 "HgN/A
8:50 am41 °FPassing clouds.10 mph53%30.12 "HgN/A
8:20 am39 °FPassing clouds.8 mph56%30.12 "HgN/A
7:50 am37 °FPassing clouds.7 mph56%30.12 "HgN/A
7:20 am36 °FPartly sunny.7 mph60%30.12 "HgN/A
6:50 am34 °FChilly.7 mph60%30.12 "HgN/A
6:20 am34 °FPassing clouds.8 mph60%30.12 "HgN/A
5:50 am32 °FChilly.8 mph64%30.12 "HgN/A
5:20 am32 °FChilly.8 mph64%30.12 "HgN/A
4:50 am32 °FChilly.8 mph64%30.12 "HgN/A
4:20 am32 °FChilly.8 mph64%30.12 "HgN/A
Weather by CustomWeather, © 2017

See weather overviewHow to use our weather pages